Main page
Satellite images Climate Cyclones Lightning AirportsFAQ Languages Contact Newsletter About
Weather : Europe Africa North America South America Asia Australia-Oceania Others

, Pattaya-Rayong, U-Tapao International Airport

latitude: , longitude: Thailand, elevation: 12-38N m


METAR: VTBU 221030Z 25002KT 4000 -TSRA FEW018CB SCT035 25/23 Q1008 NOSIG